Location: Remedello Sotto
(45.2500°N, 10.3667°E)
Time: 20:34:09
(UTC+00:00)

Cosmos 2333 - Pass Details

Date: 03 February 2023
Orbit: 828 x 867 km, 70.9° (Epoch: 22 March)

Event Time Altitude Azimuth Distance (km) Brightness Sun altitude
Rises 18:32:24 0° 205° (SSW) 3,358 7.7 -22.1°
Reaches altitude 10° 18:34:49 10° 205° (SSW) 2,431 6.9 -22.5°
Maximum altitude 18:40:24 87° 296° (WNW) 843 4.1 -23.5°
Enters shadow 18:43:24 29° 24° (NNE) 1,490 5.2 -24.0°
